Regional Weather Roundup
Issued by NWS Cleveland, OH

Home | Current Version | Previous Version | Graphics & Text | Print | Product List | Glossary Off
Versions: 1 2 3 4 5 6 7 8 9 10 11 12 13 14 15 16 17 18 19 20 21 22 23 24 25 26 27 28 29 30 31 32 33 34 35 36 37 38 39 40 41 42 43 44 45 46 47 48 49 50

000
ASUS41 KCLE 011810
RWRCLE
OHIO REGIONAL WEATHER ROUNDUP
NATIONAL WEATHER SERVICE CLEVELAND, OH
200 PM EDT SAT AUG 01 2015

NOTE: "FAIR" INDICATES FEW OR NO CLOUDS BELOW 12,000 FEET WITH NO
SIGNIFICANT WEATHER AND/OR OBSTRUCTIONS TO VISIBILITY.

OHZ001>008-015>018-024>027-034-035-043-044-011900-
   NORTHWEST OHIO

CITY           SKY/WX    TMP DP  RH WIND       PRES   REMARKS
DEFIANCE       MOSUNNY   84  52  33 W9G17     29.96F
FINDLAY        MOSUNNY   81  53  37 NW10      29.96F
TOLEDO EXPRESS MOSUNNY   81  55  40 W12       29.94F
TOLEDO EXEC    PTSUNNY   83  54  36 W17G23    29.95S
LIMA           MOSUNNY   80  54  40 NW10G17   29.99S
$$

OHZ009>014-019>023-028>033-038-089-011900-
   NORTHEAST OHIO

CITY           SKY/WX    TMP DP  RH WIND       PRES   REMARKS
CLE-HOPKINS    MOSUNNY   81  56  42 NW13      29.96S
CLE-LAKEFRONT  SUNNY     80  60  50 W10       29.93S
CUY CO. ARPT   MOSUNNY   81  59  47 NW12      29.94F
LORAIN-ELYRIA  SUNNY     79  56  45 W13       29.95F
ASHTABULA      SUNNY     78  50  37 NW14      29.93F
AKRON-CANTON   MOSUNNY   83  54  36 NW15      29.94F
WOOSTER        MOSUNNY   80  55  42 NW15      29.96F
MANSFIELD      MOSUNNY   80  55  42 W13G18    29.97F
YOUNGSTOWN     MOSUNNY   79  55  43 NW13      29.93F
$$

OHZ042-051>053-060>062-070>072-077>081-011900-
  SOUTHWEST OHIO

CITY           SKY/WX    TMP DP  RH WIND       PRES   REMARKS
CINC-COVINGTON MOSUNNY   82  56  40 VRB5      30.01F
CINC-LUNKEN    MOSUNNY   81  56  42 VRB7      29.99F
HAMILTON       MOSUNNY   83  55  38 NW8       30.01F
DAYTON         MOSUNNY   80  56  43 N12       30.01F
WRIGHT-PAT AFB MOSUNNY   80  55  42 W8        30.00S
DAYTON GENERAL PTSUNNY   81  55  40 N9        30.00F
WILMINGTON     MOSUNNY   79  52  38 NW12      30.00F
$$

OHZ036-037-039>041-045>050-054>059-063>069-073>076-082>088-011900-
  CENTRAL AND SOUTHEAST OHIO

CITY           SKY/WX    TMP DP  RH WIND       PRES   REMARKS
COLUMBUS       PTSUNNY   82  54  37 W12       29.97F
OSU AIRPORT    MOSUNNY   78  55  44 NW13G18   29.98S
BOLTON FIELD   MOSUNNY   81  59  47 NW9       29.99F
RICKENBACK AFB MOSUNNY   80  54  40 NW10      29.97F
NEWARK         PTSUNNY   82  53  36 W15       29.97F
MARION         SUNNY     81  52  36 NW14      29.98S
LANCASTER      MOSUNNY   81  55  40 VRB5      29.98F
ZANESVILLE     MOSUNNY   82  50  32 NW14      29.97F
NEW PHILLY     MOSUNNY   78  56  46 VRB7      29.95F
$$


USA.gov is the U.S. government's official web portal to all federal, state and local government web resources and services.